Location: Plainartige
(45.6866°N, 1.7993°E)
Time: 18:04:33
(UTC+00:00)

Resurs 01 Rocket - Pass Details

Date: 03 March 2021
Orbit: 635 x 643 km, 98.0° (Epoch: 15 April)

Event Time Altitude Azimuth Distance (km) Brightness Sun altitude
Exits shadow 20:50:15 25° 330° (NNW) 1,296 3.6 -32.7°
Drops below altitude 10° 20:52:11 10° 339° (NNW) 2,033 4.7 -33.0°
Sets 20:54:26 0° 344° (NNW) 2,947 5.6 -33.3°
